Regional Weather Roundup
Issued by NWS

Home | Current Version | Previous Version | Text Only | Print | Product List | Glossary Off
Versions: 1 2 3 4 5 6 7 8 9 10 11 12 13 14 15 16 17 18 19 20 21 22 23 24 25 26 27 28 29 30 31 32 33 34 35 36 37 38 39 40 41 42 43 44 45 46 47 48 49 50

000
ASUS43 KLMK 211610
RWRKY
KENTUCKY REGIONAL WEATHER ROUNDUP
NATIONAL WEATHER SERVICE LOUISVILLE KY
1200 PM EDT MON MAY 21 2018

NOTE "FAIR" INDICATES FEW OR NO CLOUDS BELOW 12,000 FEET
WITH NO SIGNIFICANT WEATHER AND/OR OBSTRUCTIONS TO VISIBILITY.

KYZ001>023-026-027-061>063-070>075-211700-
WESTERN AND SOUTH CENTRAL KENTUCKY

CITY           SKY/WX    TMP DP  RH WIND       PRES   REMARKS
PADUCAH        FAIR      76  68  76 SE9       30.07R
HENDERSON      NOT AVBL
OWENSBORO      FAIR      82  67  60 SE7       30.10F
HOPKINSVILLE   NOT AVBL
BOWLING GREEN  FAIR      78  68  71 SE5       30.13F
GLASGOW        FAIR      79  67  66 CALM      30.15S
$$

KYZ024-025-028>034-038-045-046-053-211700-
NORTH CENTRAL KENTUCKY

CITY           SKY/WX    TMP DP  RH WIND       PRES   REMARKS
LOUISVILLE/SDF PTSUNNY   82  63  52 SE8       30.12F
LOUISVILLE/LOU FAIR      82  66  58 S6        30.13F
FORT KNOX      NOT AVBL
$$

KYZ035>037-039>044-047>052-055>060-089>105-211700-
NORTHEAST KENTUCKY

CITY           SKY/WX    TMP DP  RH WIND       PRES   REMARKS
LEXINGTON      FAIR      81  65  58 W5        30.16F
COVINGTON      FAIR      80  64  58 W6        30.13F
FRANKFORT      CLOUDY    81  64  56 N6        30.14S
$$

KYZ054-064>069-076>088-106>120-211700-
SOUTHEAST KENTUCKY

CITY           SKY/WX    TMP DP  RH WIND       PRES   REMARKS
JACKSON        FAIR      80  66  62 CALM      30.18S
LONDON         PTSUNNY   80  67  64 VRB6      30.17F
SOMERSET       FAIR      77  64  65 MISG      30.18S
MIDDLESBORO    FAIR      80  66  63 SE5       30.18F
MONTICELLO     FAIR      82  69  64 W13       30.18F
$$





USA.gov is the U.S. government's official web portal to all federal, state and local government web resources and services.